Wind_Speed
39 40 41 41 42 43 44 45 46 46 46 46 47 48 49 50 51 51 52 54 54 54 53 52 50 50 50 49 48 47 46 46 46 46 47 46 46 44
40 41 41 42 43 44 45 46 47 48 48 47 47 48 49 50 51 53 53 53 53 52 52 50 49 48 47 46 44 44 44 44 44 44 44 42 42 40
41 41 42 43 43 44 46 47 48 49 49 47 48 48 50 51 52 52 52 52 51 50 49 46 46 45 44 43 43 42 41 41 41 40 39 38 37 36
42 42 42 43 44 45 46 47 48 49 49 48 48 48 50 51 52 52 51 50 49 47 45 44 43 42 41 41 40 40 39 39 38 36 34 34 33 33
42 42 43 44 45 46 47 48 48 48 49 48 48 49 50 51 51 50 48 47 46 44 43 42 40 40 39 39 38 38 37 36 34 32 31 30 30 30
42 42 43 44 45 46 47 48 48 48 48 48 48 49 49 49 48 46 45 44 43 41 40 39 39 38 38 37 37 36 35 33 31 29 28 28 28 29
41 42 43 44 45 46 46 47 47 47 47 48 48 48 48 46 45 44 43 40 39 38 37 37 36 36 36 36 35 34 32 30 29 28 28 28 27 27
42 43 43 44 45 45 45 46 47 47 47 47 47 47 45 43 42 42 40 37 35 34 34 34 34 34 33 33 32 30 29 28 26 26 26 26 26 25
42 43 43 44 44 45 45 45 46 46 46 46 46 44 42 41 40 39 37 35 33 32 32 32 33 32 31 30 29 29 28 26 25 25 24 24 24 23
42 43 43 43 43 44 44 44 45 45 44 44 42 41 40 40 39 37 34 32 32 32 32 31 30 29 28 28 28 27 26 25 25 24 23 22 22 22
42 42 42 42 42 42 43 43 43 42 42 41 39 39 39 38 37 34 32 31 30 30 30 29 27 27 26 25 24 24 23 22 22 21 21 20 19 19
41 41 41 41 41 41 41 41 41 40 39 38 38 38 37 36 33 31 30 29 29 28 28 27 26 25 23 22 22 22 21 21 20 20 19 18 17 16
40 40 40 40 40 39 39 38 37 36 36 36 35 35 34 32 30 28 29 28 27 26 26 25 24 23 22 20 21 21 20 19 18 17 16 15 15 15
37 37 37 38 37 36 35 35 34 35 34 33 33 31 30 28 27 27 27 26 25 23 23 22 21 21 20 20 20 19 18 18 16 15 14 13 13 13
35 34 34 35 34 34 34 33 34 34 33 32 30 29 27 26 25 25 25 24 23 22 21 20 19 20 20 19 18 17 16 16 15 14 13 12 11 12
32 32 32 32 32 32 32 32 32 32 31 30 29 27 25 24 23 23 22 23 22 21 20 19 19 19 18 17 16 15 15 14 13 12 11 11 11 11
31 31 30 30 30 31 31 30 30 30 29 28 26 24 22 22 21 21 22 22 21 20 19 18 18 18 17 17 16 15 14 12 12 11 10 10 9 8
29 29 28 28 29 29 29 28 28 28 28 26 23 21 20 20 20 21 21 21 20 20 18 16 16 16 16 15 15 13 12 11 10 9 9 7 5 4
27 27 27 27 27 28 27 27 27 26 25 22 20 20 20 20 20 20 20 20 19 17 16 14 14 14 14 14 13 12 10 8 7 7 6 6 5 4
25 25 25 26 25 25 25 25 25 24 22 20 20 19 19 19 19 19 19 18 16 15 13 13 13 13 12 11 10 9 8 6 5 4 4 4 4 3
24 24 24 24 24 24 24 24 23 22 20 19 18 18 18 18 18 18 17 16 15 14 13 13 12 10 10 9 9 8 7 5 4 3 3 3 3 2
23 23 23 22 23 24 23 22 21 20 19 18 17 17 17 17 16 16 16 15 14 13 12 12 10 8 8 7 7 6 6 5 3 3 2 2 1 2
22 22 21 22 22 22 21 21 20 19 18 17 17 16 16 16 15 15 15 15 14 12 10 9 8 7 7 6 6 6 5 3 2 1 1 1 3 4
Wind_Direction
287 288 288 289 291 292 293 294 295 296 296 296 296 296 296 296 297 298 298 299 299 299 298 297 295 294 292 291 290 289 288 287 286 284 282 279 277 275
288 289 290 290 292 293 294 295 296 297 298 297 296 296 297 298 298 298 299 299 298 298 298 297 296 295 294 292 290 289 288 287 286 284 282 280 277 273
288 289 290 292 293 294 296 297 298 298 298 297 297 298 299 299 299 298 299 299 300 299 298 297 297 297 296 294 293 292 290 289 287 285 284 281 275 271
288 290 291 292 294 296 297 298 299 299 299 298 299 299 300 300 300 299 299 299 300 299 298 298 298 298 297 296 295 293 291 290 288 285 283 281 276 272
289 290 291 293 295 296 297 299 299 299 299 300 300 300 300 300 300 299 299 300 300 299 299 299 299 299 298 297 296 295 292 290 288 284 283 282 280 277
290 291 292 294 295 296 298 299 300 300 300 301 302 302 301 301 300 300 299 299 299 298 298 298 299 298 297 296 296 294 292 291 287 285 285 284 282 279
290 292 294 295 296 297 299 300 300 300 301 302 302 302 302 301 301 301 300 300 299 299 298 299 299 298 298 297 295 293 291 290 288 285 284 283 281 279
291 293 295 296 297 298 299 300 301 302 302 303 303 302 303 302 302 303 302 301 299 300 299 300 300 299 298 297 296 295 293 292 290 286 284 283 280 278
292 294 296 297 298 299 300 300 302 303 303 304 304 303 303 303 304 304 303 302 302 302 301 302 302 300 299 298 298 297 296 294 292 289 286 283 280 276
293 294 296 298 298 299 300 301 303 303 303 304 303 303 304 304 304 305 304 303 303 303 303 304 303 301 300 299 299 298 296 294 292 289 284 281 280 277
293 295 297 298 298 299 300 302 303 304 304 304 303 303 303 304 304 304 304 303 304 305 304 304 303 302 301 301 303 303 301 298 295 290 285 282 280 275
293 295 297 297 298 299 300 302 304 305 306 305 304 303 304 304 304 304 305 305 305 304 304 303 304 304 303 302 303 304 304 301 297 293 288 281 279 276
294 295 296 297 298 300 301 304 305 307 307 306 305 305 306 306 305 305 307 308 307 306 305 303 303 304 305 304 303 304 305 303 300 296 292 284 278 275
294 295 296 298 299 301 303 305 306 308 308 308 307 308 307 306 304 305 308 308 308 308 307 303 304 306 307 306 306 305 305 304 301 299 293 286 279 275
294 296 297 299 300 301 304 306 306 307 308 308 308 308 307 306 305 305 308 309 307 307 307 305 304 307 307 307 305 307 307 306 302 299 294 289 282 275
293 295 297 299 300 303 305 307 307 308 309 309 308 307 307 307 307 306 307 309 309 309 308 305 304 305 307 307 306 307 308 307 303 300 296 291 286 278
291 294 296 299 301 305 306 307 309 310 312 312 310 309 308 308 308 310 311 311 309 309 308 306 304 304 308 309 307 306 307 306 303 301 298 294 291 288
291 294 296 298 302 305 306 306 308 310 312 312 309 308 309 309 310 312 314 314 313 312 309 305 304 305 307 310 310 308 306 305 303 302 300 297 290 286
290 293 297 299 302 305 305 306 308 310 311 309 307 308 309 311 312 313 314 315 314 314 312 309 309 310 309 309 310 309 309 305 302 302 301 299 296 290
289 293 297 300 303 305 306 307 308 309 309 307 306 308 310 312 314 316 317 317 317 315 315 316 316 316 315 314 315 314 313 309 304 301 299 298 297 286
290 294 297 300 304 307 307 307 308 309 308 305 307 307 310 313 315 317 319 320 320 317 316 316 316 316 316 318 321 320 317 313 310 311 302 294 284 268
291 294 297 300 303 306 306 306 306 307 307 305 306 307 309 313 315 317 319 320 321 319 317 318 318 319 321 324 325 323 320 314 308 305 290 274 213 139
291 293 297 299 302 304 304 305 306 307 306 303 304 305 308 312 314 316 318 320 321 320 318 318 319 320 321 321 326 327 324 313 304 292 242 183 143 133
Height
5702 5699 5696 5693 5689 5686 5682 5678 5674 5671 5668 5663 5657 5651 5645 5640 5635 5629 5624 5618 5612 5605 5599 5593 5587 5582 5577 5572 5568 5563 5559 5555 5552 5549 5546 5543 5541 5540
5692 5689 5686 5683 5679 5675 5671 5667 5662 5657 5654 5651 5645 5640 5634 5628 5622 5616 5610 5605 5599 5592 5586 5580 5574 5569 5563 5558 5554 5550 5546 5542 5539 5536 5532 5530 5528 5527
5683 5680 5676 5673 5669 5665 5660 5655 5650 5645 5641 5638 5633 5627 5621 5616 5610 5604 5597 5591 5586 5579 5573 5567 5562 5556 5551 5546 5542 5538 5534 5530 5527 5524 5521 5518 5517 5517
5673 5670 5666 5662 5658 5654 5649 5644 5638 5633 5627 5624 5621 5615 5609 5603 5597 5591 5585 5579 5573 5567 5561 5556 5551 5545 5540 5536 5531 5527 5523 5520 5516 5513 5510 5509 5508 5507
5663 5660 5656 5652 5648 5643 5638 5633 5627 5621 5616 5611 5607 5603 5597 5591 5584 5579 5572 5567 5560 5555 5550 5545 5540 5536 5531 5526 5522 5517 5513 5510 5507 5504 5502 5500 5499 5498
5653 5649 5645 5641 5637 5632 5627 5622 5616 5610 5605 5599 5595 5590 5584 5578 5572 5567 5562 5556 5550 5545 5540 5535 5531 5526 5522 5517 5513 5509 5505 5501 5498 5496 5494 5492 5491 5490
5643 5639 5635 5630 5625 5621 5616 5611 5605 5600 5594 5589 5584 5578 5572 5566 5561 5556 5550 5545 5540 5535 5531 5526 5522 5518 5513 5509 5504 5500 5496 5493 5490 5488 5486 5484 5483 5482
5633 5629 5625 5620 5615 5611 5606 5600 5595 5589 5583 5578 5573 5567 5561 5556 5550 5545 5540 5535 5532 5528 5522 5518 5513 5509 5504 5500 5496 5492 5489 5486 5483 5480 5478 5477 5476 5475
5623 5619 5615 5610 5605 5601 5596 5590 5585 5578 5573 5567 5562 5556 5551 5546 5541 5537 5531 5526 5522 5518 5514 5510 5506 5501 5496 5492 5488 5485 5482 5479 5476 5473 5471 5470 5469 5469
5613 5609 5605 5600 5595 5591 5586 5581 5575 5569 5563 5557 5552 5547 5541 5536 5532 5528 5523 5519 5515 5510 5506 5503 5498 5494 5490 5485 5481 5478 5475 5472 5469 5467 5465 5464 5463 5463
5602 5598 5594 5590 5586 5581 5576 5571 5566 5560 5554 5548 5543 5537 5532 5528 5524 5520 5516 5512 5509 5504 5499 5495 5491 5488 5484 5479 5475 5471 5468 5466 5463 5461 5459 5458 5458 5457
5593 5589 5584 5580 5576 5570 5566 5561 5556 5551 5546 5540 5535 5529 5524 5520 5516 5512 5508 5504 5501 5498 5494 5489 5485 5481 5478 5474 5470 5467 5464 5461 5458 5456 5454 5453 5453 5452
5583 5579 5575 5571 5566 5561 5557 5552 5547 5542 5537 5532 5527 5522 5517 5513 5509 5505 5501 5498 5494 5491 5487 5483 5480 5476 5472 5470 5467 5463 5460 5457 5454 5452 5450 5449 5448 5448
5573 5569 5565 5561 5557 5553 5549 5544 5540 5535 5530 5525 5520 5515 5511 5507 5503 5499 5495 5492 5488 5485 5481 5478 5475 5472 5468 5465 5463 5460 5456 5453 5451 5449 5447 5446 5445 5444
5564 5560 5557 5553 5549 5545 5541 5537 5532 5528 5523 5519 5514 5509 5505 5501 5497 5494 5490 5487 5483 5480 5477 5473 5470 5467 5464 5461 5459 5456 5453 5451 5448 5446 5444 5443 5442 5442
5555 5552 5549 5545 5542 5538 5534 5530 5525 5521 5516 5512 5508 5503 5499 5496 5492 5489 5486 5483 5479 5476 5472 5469 5466 5463 5460 5457 5454 5452 5450 5448 5446 5443 5442 5441 5439 5438
5547 5545 5542 5539 5535 5532 5527 5523 5519 5515 5510 5506 5502 5498 5495 5491 5488 5485 5482 5478 5475 5472 5469 5465 5462 5459 5456 5453 5451 5449 5447 5445 5443 5441 5440 5438 5437 5436
5540 5537 5535 5532 5529 5525 5521 5517 5513 5509 5505 5501 5497 5494 5491 5487 5484 5481 5477 5474 5471 5468 5465 5461 5458 5456 5454 5451 5448 5446 5444 5442 5440 5439 5437 5437 5436 5435
5533 5530 5528 5525 5522 5519 5515 5511 5508 5504 5500 5496 5493 5490 5487 5484 5480 5477 5474 5471 5467 5464 5461 5458 5455 5453 5451 5449 5446 5443 5441 5440 5438 5437 5436 5435 5435 5434
5526 5524 5521 5519 5516 5512 5509 5506 5502 5498 5495 5492 5489 5486 5483 5480 5477 5474 5471 5467 5464 5461 5458 5455 5453 5450 5448 5446 5444 5442 5439 5438 5437 5436 5435 5434 5434 5433
5519 5517 5515 5512 5510 5507 5503 5500 5497 5494 5491 5488 5485 5482 5479 5476 5473 5471 5468 5465 5462 5459 5456 5453 5451 5448 5446 5445 5443 5441 5439 5437 5436 5436 5435 5434 5434 5433
5513 5511 5509 5506 5504 5501 5498 5495 5492 5489 5486 5484 5481 5478 5476 5473 5470 5467 5465 5462 5459 5457 5454 5451 5449 5447 5445 5444 5442 5440 5439 5437 5436 5435 5435 5435 5434 5433
5506 5504 5503 5500 5498 5496 5493 5490 5487 5484 5482 5479 5477 5475 5472 5470 5467 5465 5462 5459 5457 5454 5452 5450 5448 5446 5444 5443 5441 5440 5439 5438 5436 5436 5435 5434 5434 5434